{"data":{"norad_id":52497,"epoch":"2026-05-25T01:25:08.469120Z","epoch_age_seconds":73378,"freshness":"FRESH","line1":"1 52497U 22049AY  26145.05912580 -.00000491  00000+0 -12783-4 0  9992","line2":"2 52497  53.2144  66.2821 0001266  89.4964 270.6173 15.08839554223920","mean_motion":15.08839554,"eccentricity":0.0001266,"inclination_deg":53.2144,"raan_deg":66.2821,"arg_perigee_deg":89.4964,"mean_anomaly_deg":270.6173,"bstar":-1.2783e-5,"rev_number":22392,"period_min":95.437582888286,"perigee_km":538.86894837819,"apogee_km":540.62055603784,"semimajor_km":6917.881752208,"source":"CELESTRAK","updated_at":"2026-05-25T13:38:17.159169Z"}}